When you browse on this site, cookies collect data to enhance your experience and personalize the content and advertising you see.
Visit our Privacy Policy to learn more. By continuing to use the site, you agree to this use of cookies and data.
  • In Germany
  • List of Countries
  • For 7 days
  • Water Temperature
  • Weather Map
  • Weather Widgets
  • user-avatar
    Login

    Hourly Weather Maidstone

    Today, 31 May, Sunday

    Time Temperature Precipitation Wind Pressure Humidity
    00:00 +12°C° 0 mm 4 mps 764 mmHg 89%
    01:00 +12°C° 0 mm 3 mps 764 mmHg 88%
    02:00 +12°C° 0 mm 3 mps 764 mmHg 88%
    03:00 +12°C° 0 mm 3 mps 764 mmHg 87%
    04:00 +13°C° 0 mm 3 mps 764 mmHg 83%
    05:00 +13°C° 0 mm 4 mps 764 mmHg 80%
    06:00 +14°C° 0 mm 4 mps 764 mmHg 76%
    07:00 +17°C° 0 mm 4 mps 764 mmHg 71%
    08:00 +17°C° 0 mm 5 mps 765 mmHg 65%
    09:00 +19°C° 0 mm 5 mps 765 mmHg 60%
    10:00 +20°C° 0 mm 6 mps 765 mmHg 57%
    11:00 +20°C° 0 mm 6 mps 765 mmHg 55%
    12:00 +21°C° 0 mm 7 mps 765 mmHg 53%
    13:00 +20°C° 0 mm 7 mps 765 mmHg 53%
    14:00 +20°C° 0 mm 7 mps 765 mmHg 52%
    15:00 +20°C° 0 mm 7 mps 765 mmHg 52%
    16:00 +18°C° 0 mm 7 mps 765 mmHg 56%
    17:00 +17°C° 0 mm 7 mps 765 mmHg 59%
    18:00 +16°C° 0 mm 6 mps 764 mmHg 63%
    19:00 +15°C° 0 mm 6 mps 765 mmHg 68%
    20:00 +14°C° 0 mm 6 mps 765 mmHg 74%
    21:00 +11°C° 0 mm 6 mps 765 mmHg 79%
    22:00 +12°C° 0 mm 5 mps 765 mmHg 83%
    23:00 +12°C° 0 mm 5 mps 765 mmHg 86%

    Tomorrow, 1 June, Monday

    Time Temperature Precipitation Wind Pressure Humidity
    00:00 +12°C° 0 mm 4 mps 765 mmHg 90%
    01:00 +11°C° 0 mm 4 mps 765 mmHg 91%
    02:00 +11°C° 0 mm 4 mps 765 mmHg 92%
    03:00 +11°C° 0 mm 3 mps 764 mmHg 94%
    04:00 +12°C° 0 mm 4 mps 764 mmHg 91%
    05:00 +13°C° 0 mm 4 mps 764 mmHg 87%
    06:00 +14°C° 0 mm 5 mps 765 mmHg 84%
    07:00 +15°C° 0 mm 5 mps 765 mmHg 78%
    08:00 +17°C° 0 mm 5 mps 765 mmHg 72%
    09:00 +19°C° 0 mm 6 mps 765 mmHg 65%
    10:00 +19°C° 0 mm 6 mps 764 mmHg 64%
    11:00 +20°C° 0 mm 6 mps 764 mmHg 62%
    12:00 +20°C° 0 mm 6 mps 764 mmHg 60%
    13:00 +20°C° 0 mm 6 mps 764 mmHg 60%
    14:00 +20°C° 0 mm 6 mps 764 mmHg 60%
    15:00 +20°C° 0 mm 6 mps 764 mmHg 60%
    16:00 +19°C° 0 mm 6 mps 763 mmHg 63%
    17:00 +17°C° 0 mm 6 mps 763 mmHg 65%
    18:00 +16°C° 0 mm 5 mps 763 mmHg 68%
    19:00 +15°C° 0 mm 5 mps 763 mmHg 73%
    20:00 +14°C° 0 mm 5 mps 764 mmHg 78%
    21:00 +12°C° 0 mm 4 mps 764 mmHg 82%
    22:00 +12°C° 0 mm 4 mps 764 mmHg 86%
    23:00 +11°C° 0 mm 4 mps 763 mmHg 89%

    Day after tomorrow, 2 June, Tuesday

    Time Temperature Precipitation Wind Pressure Humidity
    00:00 +11°C° 0 mm 3 mps 763 mmHg 92%
    01:00 +11°C° 0 mm 3 mps 763 mmHg 92%
    02:00 +11°C° 0 mm 3 mps 763 mmHg 93%
    03:00 +10°C° 0 mm 3 mps 762 mmHg 94%
    04:00 +11°C° 0 mm 3 mps 762 mmHg 91%
    05:00 +12°C° 0 mm 3 mps 762 mmHg 89%
    06:00 +13°C° 0 mm 3 mps 762 mmHg 86%
    07:00 +16°C° 0 mm 3 mps 762 mmHg 80%
    08:00 +18°C° 0 mm 3 mps 762 mmHg 75%
    09:00 +20°C° 0 mm 3 mps 762 mmHg 69%
    10:00 +21°C° 0 mm 3 mps 761 mmHg 65%
    11:00 +22°C° 0 mm 3 mps 761 mmHg 61%
    12:00 +24°C° 0 mm 3 mps 761 mmHg 57%
    13:00 +24°C° 0 mm 3 mps 760 mmHg 57%
    14:00 +24°C° 0 mm 3 mps 759 mmHg 57%
    15:00 +24°C° 0 mm 2 mps 759 mmHg 57%
    16:00 +23°C° 0 mm 2 mps 758 mmHg 61%
    17:00 +21°C° 0 mm 2 mps 758 mmHg 65%
    18:00 +20°C° 0 mm 2 mps 758 mmHg 70%
    19:00 +19°C° 0 mm 2 mps 758 mmHg 73%
    20:00 +18°C° 0 mm 2 mps 758 mmHg 77%
    21:00 +16°C° 0 mm 2 mps 757 mmHg 81%
    22:00 +15°C° 0 mm 2 mps 757 mmHg 83%
    23:00 +15°C° 0 mm 2 mps 757 mmHg 86%

    3 June, Wednesday

    Time Temperature Precipitation Wind Pressure Humidity
    00:00 +14°C° 0 mm 2 mps 756 mmHg 88%
    01:00 +14°C° 0 mm 2 mps 756 mmHg 88%
    02:00 +14°C° 0 mm 2 mps 755 mmHg 88%
    03:00 +14°C° 0 mm 2 mps 755 mmHg 88%
    04:00 +14°C° 0 mm 2 mps 755 mmHg 85%
    05:00 +14°C° 0 mm 3 mps 755 mmHg 83%
    06:00 +14°C° 0 mm 3 mps 754 mmHg 80%
    07:00 +16°C° 0 mm 3 mps 754 mmHg 78%
    08:00 +17°C° 0 mm 4 mps 754 mmHg 75%
    09:00 +18°C° 0 mm 4 mps 754 mmHg 72%
    10:00 +19°C° 0 mm 4 mps 754 mmHg 68%
    11:00 +20°C° 0 mm 4 mps 754 mmHg 65%
    12:00 +21°C° 0 mm 4 mps 754 mmHg 62%
    13:00 +21°C° 0.2 mm 4 mps 754 mmHg 62%
    14:00 +21°C° 0.2 mm 4 mps 754 mmHg 63%
    15:00 +21°C° 0.2 mm 5 mps 753 mmHg 63%
    16:00 +21°C° 0.2 mm 5 mps 753 mmHg 68%
    17:00 +20°C° 0.2 mm 5 mps 753 mmHg 72%
    18:00 +19°C° 0.2 mm 5 mps 753 mmHg 77%
    19:00 +17°C° 0 mm 5 mps 753 mmHg 81%
    20:00 +16°C° 0 mm 5 mps 754 mmHg 85%
    21:00 +15°C° 0 mm 6 mps 754 mmHg 89%
    22:00 +14°C° 0 mm 6 mps 754 mmHg 89%
    23:00 +14°C° 0 mm 7 mps 754 mmHg 89%

    4 June, Thursday

    Time Temperature Precipitation Wind Pressure Humidity
    00:00 +12°C° 0 mm 7 mps 754 mmHg 89%
    01:00 +12°C° 0.1 mm 7 mps 754 mmHg 89%
    02:00 +12°C° 0.1 mm 7 mps 754 mmHg 89%
    03:00 +12°C° 0.1 mm 7 mps 754 mmHg 89%
    04:00 +12°C° 0.1 mm 7 mps 754 mmHg 89%
    05:00 +12°C° 0.1 mm 7 mps 754 mmHg 89%
    06:00 +12°C° 0.1 mm 8 mps 754 mmHg 89%
    07:00 +12°C° 0 mm 8 mps 754 mmHg 87%
    08:00 +12°C° 0 mm 8 mps 754 mmHg 85%
    09:00 +13°C° 0 mm 8 mps 755 mmHg 82%
    10:00 +13°C° 0 mm 8 mps 755 mmHg 80%
    11:00 +15°C° 0 mm 8 mps 755 mmHg 77%
    12:00 +15°C° 0 mm 8 mps 755 mmHg 74%
    13:00 +16°C° 0 mm 7 mps 755 mmHg 73%
    14:00 +16°C° 0 mm 7 mps 755 mmHg 71%
    15:00 +16°C° 0 mm 7 mps 755 mmHg 70%
    16:00 +16°C° 0 mm 7 mps 755 mmHg 72%
    17:00 +15°C° 0 mm 6 mps 755 mmHg 73%
    18:00 +15°C° 0 mm 6 mps 755 mmHg 75%
    19:00 +13°C° 0 mm 5 mps 755 mmHg 80%
    20:00 +12°C° 0 mm 5 mps 755 mmHg 85%
    21:00 +11°C° 0 mm 4 mps 756 mmHg 90%
    22:00 +11°C° 0 mm 4 mps 755 mmHg 90%
    23:00 +10°C° 0 mm 4 mps 755 mmHg 91%

    5 June, Friday

    Time Temperature Precipitation Wind Pressure Humidity
    00:00 +10°C° 0 mm 4 mps 755 mmHg 91%
    01:00 +9°C° 0 mm 3 mps 755 mmHg 92%
    02:00 +9°C° 0 mm 3 mps 754 mmHg 92%
    03:00 +9°C° 0 mm 2 mps 754 mmHg 92%
    04:00 +10°C° 0 mm 3 mps 754 mmHg 87%
    05:00 +10°C° 0 mm 3 mps 753 mmHg 82%
    06:00 +11°C° 0 mm 3 mps 753 mmHg 77%
    07:00 +13°C° 0 mm 3 mps 753 mmHg 69%
    08:00 +16°C° 0 mm 2 mps 753 mmHg 60%
    09:00 +18°C° 0 mm 2 mps 753 mmHg 52%
    10:00 +19°C° 0 mm 2 mps 753 mmHg 49%
    11:00 +20°C° 0 mm 2 mps 753 mmHg 47%
    12:00 +23°C° 0 mm 2 mps 752 mmHg 45%
    13:00 +23°C° 0 mm 2 mps 752 mmHg 45%
    14:00 +23°C° 0 mm 2 mps 752 mmHg 45%
    15:00 +24°C° 0 mm 2 mps 752 mmHg 45%
    16:00 +22°C° 0 mm 3 mps 752 mmHg 49%
    17:00 +21°C° 0 mm 4 mps 752 mmHg 54%
    18:00 +20°C° 0 mm 5 mps 753 mmHg 58%
    19:00 +17°C° 0 mm 5 mps 753 mmHg 68%
    20:00 +15°C° 0 mm 6 mps 754 mmHg 77%
    21:00 +13°C° 0 mm 6 mps 755 mmHg 86%
    22:00 +11°C° 0 mm 6 mps 755 mmHg 84%
    23:00 +11°C° 0 mm 6 mps 755 mmHg 81%
    Show more